Regional Weather Roundup
Issued by NWS Upton, NY

Current Version | Previous Version | Text Only | Print | Product List | Glossary On
Versions: 1 2 3 4 5 6 7 8 9 10 11 12 13 14 15 16 17 18 19 20 21 22 23 24 25 26 27 28 29 30 31 32 33 34 35 36 37 38 39 40 41 42 43 44 45 46 47 48 49 50
000
ASUS41 KOKX 290405
RWROKX

REGIONAL WEATHER ROUNDUP
NATIONAL WEATHER SERVICE NEW YORK NY
1200 AM EDT FRI AUG 29 2014

NOTE: "FAIR" INDICATES FEW OR NO CLOUDS BELOW 12,000 FEET WITH NO
SIGNIFICANT WEATHER AND/OR OBSTRUCTIONS TO VISIBILITY.

NYZ071-072-176-178-NJZ106-104-290500-
NEW YORK CITY METRO AREA


CITY           SKY/WX    TMP DP  RH WIND       PRES   REMARKS
CENTRAL PARK   CLEAR     67  46  47 VRB3      30.09R
LAGUARDIA APRT PTCLDY    68  50  52 N8        30.05R
KENNEDY INTL   PTCLDY    69  47  45 N15       30.05R
NEWARK/LIBERTY PTCLDY    67  47  48 NW12      30.06R
BRNX BOT. GARD   N/A     66  48  52 N13       30.08R
TETERBORO      CLEAR     66  46  48 N5        30.05R
$$

NYZ177-179-078>081-290500-
LONG ISLAND NEW YORK

CITY           SKY/WX    TMP DP  RH WIND       PRES   REMARKS
FARMINGDALE    CLEAR     67  52  58 N9        30.05R
ISLIP          CLEAR     67  51  56 NW12      30.03R
SHIRLEY        CLEAR     67  52  58 N9        30.04R
WESTHAMPTON    CLEAR     67  52  58 N8        30.04R
MONTAUK POINT    N/A     69  55  60 N9        30.01R
$$

NYZ052-065-067-290500-
HUDSON VALLEY

CITY           SKY/WX    TMP DP  RH WIND       PRES   REMARKS
WHITE PLAINS   CLEAR     62  50  64 NW10      30.05R
NEWBURGH       CLEAR     61  52  72 W5        30.07
MONTGOMERY     CLEAR     55  49  80 CALM      30.08R
POUGHKEEPSIE   CLEAR     57  52  83 CALM      30.06R
ALBANY         MOCLDY    60  51  72 N6        30.07R
$$

NJZ001-105-106-008-010-013-015-019>022-104-290500-
NEW JERSEY

CITY           SKY/WX    TMP DP  RH WIND       PRES   REMARKS
NEWARK/LIBERTY PTCLDY    67  47  48 NW12      30.06R
TETERBORO      CLEAR     66  46  48 N5        30.05R
CALDWELL       CLEAR     62  46  55 CALM      30.07R
MORRISTOWN     CLEAR     59  48  67 CALM      30.08R
SOMERVILLE     CLEAR     60  49  66 CALM      30.07R
LINDEN         FAIR      69  50  50 NW5       30.08R
SUSSEX         CLEAR     55  50  83 CALM      30.10R
ANDOVER          N/A     55  50  83 CALM      30.10R
TRENTON        CLEAR     61  49  64 CALM      30.08R
MILLVILLE      CLEAR     63  53  70 NW5       30.08R
ATLANTIC CITY  CLEAR     61  53  75 NW7       30.07R
WRIGHTSTOWN    CLEAR     61  50  66 NW8       30.06R
TOMS RIVER     CLEAR     63  50  63 CALM      30.07R
BELMAR         CLEAR     64  46  52 NW7       30.06R
$$

PAZ047>061-062-071-290500-
EASTERN PENNSYLVANIA

CITY           SKY/WX    TMP DP  RH WIND       PRES   REMARKS
PHILADELPHIA   CLEAR     68  48  48 N13       30.10R
ALLENTOWN      CLEAR     61  47  59 NW6       30.11R
SCRANTON       CLEAR     57  49  74 E3        30.13R
$$

CTZ002-004>006-009-010-012-RIZ004-006-007-MAZ004-011-015-290500-
SOUTHERN NEW ENGLAND
 IN CT

CITY           SKY/WX    TMP DP  RH WIND       PRES   REMARKS
BRADLEY INTL   PTCLDY    62  53  72 N6        30.03R
HARTFORD       CLEAR     66  52  60 N7        30.03R
DANBURY        CLEAR     63  50  62 NW3       30.08R
WTRBRY/OXFORD  CLEAR     61  48  63 NW5       30.08R
BRIDGEPORT     CLEAR     66  51  58 NW9       30.04R
MERIDEN        CLEAR     66  51  58 NW8       30.03R
NEW HAVEN      CLEAR     67  52  58 NW6       30.03R
CHESTER        FAIR      64  54  68 N8        30.03S
GROTON         CLEAR     63  54  72 N7        30.00R
WILLIMANTIC    CLEAR     62  53  72 N5        30.03R

 IN RI

CITY           SKY/WX    TMP DP  RH WIND       PRES   REMARKS
PROVIDENCE     CLEAR     65  50  58 NW6       30.01R
BLOCK ISLAND   CLEAR     66  54  63 N6        30.00R
WESTERLY       CLEAR     66  51  58 N13       30.00S

 IN MA

CITY           SKY/WX    TMP DP  RH WIND       PRES   REMARKS
BOSTON         PTCLDY    66  47  50 NW10      29.98R
WORCESTER      CLEAR     59  47  64 NW13      30.03R
WESTFIELD      CLEAR     60  53  77 CALM      30.04R
PROVINCETOWN   CLEAR     66  54  63 NW13      29.97R
NANTUCKET      CLEAR     69  50  50 N21       29.96R
$$

ANZ330-335-338-340-345-350-353-355-290500-
COASTAL MARINE OBSERVATIONS


STATION/POSITION TIME  SKY/WX   TEMP    WIND        PRES    VSBY  WAVE
                                AIR SEA DIR/SP/G                  HT/PER
                 (UTC)          (F)     (DEG/KT/KT) (MB)    (MI)  (FT/S)
NY HARB ENTRANCE NOT AVBL
4S FIRE IS       NOT AVBL
23SW MTP         0400                                 N/A           5/13
HUDSON CANYON    0400            73 72  350/ 14/ 16 1016.0          5/12
EXECUTION ROCKS  0400            69 74  320/  8/ 12   N/A
WESTERN LI SOUND 0400            69     330/ 10/ 14   N/A           0
CENTRAL LI SOUND 0400            69 71  350/ 14/ 16   N/A           2/ 3
EASTERN LI SOUND 0300            68 69  340/ 10/ 12   N/A
ROBBINS REEF     0400            68     340/ 10/ 13   N/A
$$


>>>>>>>>>>>>>>>>>>>>>>>>>>>> KEY <<<<<<<<<<<<<<<<<<<<<<<<<<<
>                                                          <
>     SKY/WX - SKY CONDITION/PRESENT WEATHER               <
>     TMP    - TEMPERATURE IN FAHRENHEIT                   <
>     DP     - DEWPOINT IN FAHRENHEIT                      <
>     RH     - RELATIVE HUMIDITY IN PERCENT                <
>     WIND   - DIRECTION AND SPEED IN MPH                  <
>     PRES   - MEAN SEA LEVEL PRESSURE IN INCHES OF HG     <
>     WCI    - WIND CHILL INDEX                            <
>     VSB    - VISIBILITY IN MILES                         <
>     HX     - HEAT INDEX                                  <
>     TC     - TEMPERATURE IN CELSIUS                      <
>     VRB    - VARIABLE WIND DIRECTION                     <
>                                                          <
>>>>>>>>>>>>>>>>>>>>>>>>>>>> KEY <<<<<<<<<<<<<<<<<<<<<<<<<<<





USA.gov is the U.S. government's official web portal to all federal, state and local government web resources and services.